This demonstration page uses our WeatherBlox Daily Observations layout. Learn more.

Left ArrowRight Arrow

39.01783, -85.05884

Hourly Observations for June 22, 2021

Temp ( °F °C ) Dew Point ( °F °C ) Humidity (%) Winds ( mph kmh ) Pressure ( in mb ) Visibility ( mi km ) Precip ( " mm )
12:52 am 00:52 Mostly Cloudy 64 17.8 60 15.6 87 87 WSW 5 7 29.84 1011 10 16 N/A
1:52 am 01:52 Mostly Cloudy 63 17.2 59 15 87 87 WNW 7 11 29.85 1011 10 16 N/A
2:52 am 02:52 Partly Cloudy 62 16.7 57 13.9 84 84 WNW 6 9 29.84 1011 10 16 N/A
3:52 am 03:52 Partly Cloudy 61 16.1 56 13.3 84 84 NNW 16 26 29.84 1010 10 16 N/A
4:52 am 04:52 Partly Cloudy 59 15 48 8.9 67 67 N 12 19 29.85 1011 10 16 N/A
5:52 am 05:52 Partly Cloudy 58 14.4 47 8.3 67 67 N 10 17 29.89 1012 10 16 N/A
6:37 am 06:37 Mostly Cloudy 57 13.9 46 7.8 67 67 N 8 13 29.92 1013 10 16 N/A
6:52 am 06:52 Mostly Cloudy 57 13.9 46 7.8 67 67 N 9 15 29.90 1013 10 16 N/A
7:57 am 07:57 Mostly Sunny 58 14.4 46 7.8 65 65 N 9 15 29.95 1014 10 16 N/A
8:52 am 08:52 Mostly Sunny 61 16.1 46 7.8 58 58 N 9 15 29.96 1015 10 16 N/A
9:52 am 09:52 Sunny 64 17.8 41 5 43 43 N 13 20 29.98 1015 10 16 N/A
10:52 am 10:52 Mostly Sunny 65 18.3 42 5.6 43 43 NNW 10 17 30.00 1016 10 16 N/A
11:52 am 11:52 Partly Cloudy 65 18.3 39 3.9 39 39 NW 13 20 30.01 1016 10 16 N/A
12:52 pm 12:52 Partly Cloudy 67 19.4 41 5 39 39 NNW 15 24 30.02 1017 10 16 N/A
1:27 pm 13:27 Mostly Sunny 67 19.4 38 3.3 35 35 NNW 15 24 30.02 1017 10 16 N/A
1:52 pm 13:52 Mostly Sunny 67 19.4 39 3.9 36 36 NNW 17 28 30.02 1017 10 16 N/A
2:52 pm 14:52 Mostly Sunny 70 21.1 39 3.9 32 32 NNW 15 24 30.01 1016 10 16 N/A
3:52 pm 15:52 Mostly Sunny 69 20.6 37 2.8 31 31 WNW 6 9 30.00 1016 10 16 N/A
4:52 pm 16:52 Mostly Sunny 69 20.6 37 2.8 31 31 VRB 5 7 30.00 1016 10 16 N/A
5:52 pm 17:52 Partly Cloudy 70 21.1 39 3.9 32 32 NW 7 11 30.00 1016 10 16 N/A
6:52 pm 18:52 Mostly Cloudy 70 21.1 39 3.9 32 32 N 9 15 30.01 1016 10 16 N/A
7:52 pm 19:52 Mostly Cloudy 69 20.6 39 3.9 33 33 NW 6 9 30.02 1017 10 16 N/A
8:52 pm 20:52 Mostly Cloudy 64 17.8 42 5.6 45 45 N N/A 30.04 1017 10 16 N/A
9:52 pm 21:52 Mostly Cloudy 63 17.2 40 4.4 43 43 N N/A 30.05 1018 10 16 N/A
10:52 pm 22:52 Mostly Cloudy 61 16.1 43 6.1 52 52 N N/A 30.07 1018 10 16 N/A
11:52 pm 23:52 Mostly Clear 59 15 45 7.2 60 60 N N/A 30.07 1018 10 16 N/A

Powered by AerisWeather